| time (UTC) | temp F | wind direction | speed knots | gust knots | rain 1hr in | rain 24hr in | rain mn in | humidity % | barometer mb |
| 20260906214537 | 92 | 46 | 1.7 | 7.8 | 0.00 | 0.00 | 0.00 | 42 | 1006.0 |
| 20260906214027 | 92 | 46 | 1.7 | 5.2 | 0.00 | 0.00 | 0.00 | 41 | 1006.0 |
| 20260906213626 | 92 | 42 | 1.7 | 4.3 | 0.00 | 0.00 | 0.00 | 41 | 1006.0 |
| 20260906212523 | 92 | 37 | 1.7 | 7.8 | 0.00 | 0.00 | 0.00 | 40 | 1005.9 |
| 20260906212022 | 92 | 51 | 1.7 | 8.7 | 0.00 | 0.00 | 0.00 | 40 | 1005.9 |
| 20260906211521 | 92 | 51 | 3.5 | 8.7 | 0.00 | 0.00 | 0.00 | 40 | 1006.0 |
| 20260906211121 | 92 | 61 | 0.9 | 7.8 | 0.00 | 0.00 | 0.00 | 41 | 1006.1 |
| 20260906210521 | 91 | 61 | 1.7 | 7.8 | 0.00 | 0.00 | 0.00 | 43 | 1006.2 |
| 20260906205517 | 92 | 80 | 2.6 | 7.0 | 0.00 | 0.00 | 0.00 | 41 | 1006.5 |
| 20260906205016 | 91 | 78 | 0.9 | 7.0 | 0.00 | 0.00 | 0.00 | 41 | 1006.7 |
| 20260906204517 | 92 | 112 | 3.5 | 7.0 | 0.00 | 0.00 | 0.00 | 41 | 1006.8 |
| 20260906204013 | 91 | 104 | 0.9 | 3.5 | 0.00 | 0.00 | 0.00 | 42 | 1007.0 |
| 20260906203513 | 90 | 107 | 3.5 | 8.7 | 0.00 | 0.00 | 0.00 | 44 | 1007.1 |
| 20260906202507 | 90 | 61 | 2.6 | 7.8 | 0.00 | 0.00 | 0.00 | 43 | 1007.2 |
| 20260906202006 | 90 | 105 | 2.6 | 6.1 | 0.00 | 0.00 | 0.00 | 43 | 1007.3 |
| 20260906201506 | 89 | 137 | 1.7 | 4.3 | 0.00 | 0.00 | 0.00 | 43 | 1007.3 |
| 20260906201007 | 89 | 142 | 1.7 | 6.1 | 0.00 | 0.00 | 0.00 | 44 | 1007.4 |
| 20260906200503 | 89 | 147 | 1.7 | 7.8 | 0.00 | 0.00 | 0.00 | 45 | 1007.4 |
| 20260906200003 | 89 | 217 | 2.6 | 7.8 | 0.00 | 0.00 | 0.00 | 46 | 1007.5 |
| 20260906195502 | 88 | 227 | 0.9 | 7.8 | 0.00 | 0.00 | 0.00 | 47 | 1007.3 |
| 20260906195002 | 88 | 196 | 1.7 | 5.2 | 0.00 | 0.00 | 0.00 | 47 | 1007.7 |
| 20260906194600 | 88 | 197 | 0.9 | 7.8 | 0.00 | 0.00 | 0.00 | 48 | 1007.8 |
| 20260906194059 | 88 | 199 | 0.9 | 7.8 | 0.00 | 0.00 | 0.00 | 49 | 1007.7 |
| 20260906193558 | 87 | 205 | 3.5 | 7.0 | 0.00 | 0.00 | 0.00 | 50 | 1007.9 |
| 20260906192558 | 87 | 188 | 3.5 | 7.8 | 0.00 | 0.00 | 0.00 | 51 | 1008.1 |
| 20260906192102 | 86 | 259 | 2.6 | 7.8 | 0.00 | 0.00 | 0.00 | 53 | 1008.2 |
| 20260906191558 | 86 | 227 | 2.6 | 6.1 | 0.00 | 0.00 | 0.00 | 56 | 1008.4 |
| 20260906191054 | 85 | 227 | 0.9 | 5.2 | 0.00 | 0.00 | 0.00 | 58 | 1008.5 |
| 20260906190553 | 84 | 227 | 1.7 | 7.0 | 0.00 | 0.00 | 0.00 | 59 | 1008.4 |
| 20260906190052 | 84 | 255 | 3.5 | 7.8 | 0.00 | 0.00 | 0.00 | 59 | 1008.6 |
| 20260906185552 | 84 | 236 | 3.5 | 6.1 | 0.00 | 0.00 | 0.00 | 59 | 1008.7 |
| 20260906185050 | 83 | 290 | 0.9 | 7.0 | 0.00 | 0.00 | 0.00 | 61 | 1008.8 |
| 20260906184549 | 83 | 311 | 0.0 | 7.0 | 0.00 | 0.00 | 0.00 | 62 | 1008.7 |
| 20260906184047 | 82 | 313 | 3.5 | 7.0 | 0.00 | 0.00 | 0.00 | 62 | 1008.9 |
| 20260906183547 | 82 | 272 | 0.9 | 7.0 | 0.00 | 0.00 | 0.00 | 63 | 1009.0 |
| 20260906182543 | 81 | 240 | 2.6 | 7.0 | 0.00 | 0.00 | 0.00 | 64 | 1009.3 |
| 20260906182043 | 81 | 251 | 0.9 | 5.2 | 0.00 | 0.00 | 0.00 | 65 | 1009.3 |
| 20260906181545 | 80 | 228 | 1.7 | 5.2 | 0.00 | 0.00 | 0.00 | 66 | 1009.3 |
| 20260906181040 | 80 | 288 | 3.5 | 6.1 | 0.00 | 0.00 | 0.00 | 66 | 1009.4 |
| 20260906180540 | 79 | 315 | 0.9 | 5.2 | 0.00 | 0.00 | 0.00 | 68 | 1009.4 |
| 20260906180039 | 79 | 196 | 1.7 | 5.2 | 0.00 | 0.00 | 0.00 | 69 | 1009.5 |
| 20260906175541 | 78 | 331 | 0.9 | 4.3 | 0.00 | 0.00 | 0.00 | 72 | 1009.7 |
| 20260906175035 | 77 | 226 | 0.0 | 4.3 | 0.00 | 0.00 | 0.00 | 74 | 1009.6 |
| 20260906174535 | 76 | 232 | 0.0 | 5.2 | 0.00 | 0.00 | 0.00 | 74 | 1009.7 |
| 20260906174035 | 76 | 232 | 1.7 | 5.2 | 0.00 | 0.00 | 0.00 | 75 | 1009.7 |
| 20260906173532 | 76 | 193 | 0.9 | 5.2 | 0.00 | 0.00 | 0.00 | 76 | 1009.8 |
| 20260906172534 | 76 | 216 | 2.6 | 7.0 | 0.00 | 0.00 | 0.00 | 75 | 1010.1 |
| 20260906172035 | 75 | 213 | 2.6 | 7.0 | 0.00 | 0.00 | 0.00 | 76 | 1010.0 |
| 20260906171532 | 74 | 207 | 1.7 | 5.2 | 0.00 | 0.00 | 0.00 | 78 | 1010.0 |
| 20260906171030 | 74 | 209 | 2.6 | 5.2 | 0.00 | 0.00 | 0.00 | 78 | 1009.8 |
| 20260906170531 | 74 | 209 | 1.7 | 6.1 | 0.00 | 0.00 | 0.00 | 79 | 1009.7 |
| 20260906170031 | 74 | 211 | 3.5 | 6.1 | 0.00 | 0.00 | 0.00 | 80 | 1009.8 |
| 20260906165529 | 74 | 219 | 3.5 | 7.8 | 0.00 | 0.00 | 0.00 | 80 | 1010.0 |
| 20260906165029 | 73 | 218 | 3.5 | 7.8 | 0.00 | 0.00 | 0.00 | 81 | 1010.0 |
| 20260906164529 | 73 | 227 | 2.6 | 7.0 | 0.00 | 0.00 | 0.00 | 82 | 1010.2 |
| 20260906164028 | 73 | 139 | 0.9 | 4.3 | 0.00 | 0.00 | 0.00 | 82 | 1010.0 |
| 20260906163527 | 73 | 139 | 0.9 | 7.0 | 0.00 | 0.00 | 0.00 | 82 | 1009.9 |
| 20260906162526 | 72 | 194 | 0.9 | 3.5 | 0.00 | 0.00 | 0.00 | 85 | 1009.7 |
| 20260906162022 | 71 | 155 | 1.7 | 4.3 | 0.00 | 0.00 | 0.00 | 86 | 1009.5 |
| 20260906161528 | 71 | 331 | 0.0 | 3.5 | 0.00 | 0.00 | 0.00 | 88 | 1009.4 |
| 20260906161023 | 70 | 25 | 0.0 | 4.3 | 0.00 | 0.00 | 0.00 | 90 | 1009.4 |
| 20260906160519 | 69 | 349 | 0.9 | 4.3 | 0.00 | 0.00 | 0.00 | 91 | 1009.3 |
| 20260906160031 | 68 | 20 | 1.7 | 4.3 | 0.00 | 0.00 | 0.00 | 93 | 1009.5 |
| 20260906155518 | 67 | 102 | 1.7 | 7.8 | 0.00 | 0.00 | 0.00 | 92 | 1009.6 |
| 20260906155022 | 67 | 31 | 3.5 | 7.0 | 0.00 | 0.00 | 0.00 | 92 | 1009.5 |
| 20260906154534 | 67 | 43 | 1.7 | 7.8 | 0.00 | 0.00 | 0.00 | 92 | 1009.5 |
| 20260906154018 | 67 | 14 | 2.6 | 7.8 | 0.00 | 0.00 | 0.00 | 92 | 1009.7 |
| 20260906153523 | 67 | 51 | 1.7 | 7.8 | 0.00 | 0.00 | 0.00 | 92 | 1009.7 |
| 20260906152521 | 67 | 29 | 2.6 | 7.8 | 0.00 | 0.00 | 0.00 | 92 | 1010.2 |
| 20260906152020 | 67 | 5 | 2.6 | 7.0 | 0.00 | 0.00 | 0.00 | 92 | 1010.0 |
| 20260906151519 | 68 | 32 | 1.7 | 5.2 | 0.00 | 0.00 | 0.00 | 92 | 1010.2 |
| 20260906151021 | 67 | 349 | 1.7 | 6.1 | 0.00 | 0.00 | 0.00 | 92 | 1009.8 |
| 20260906150521 | 68 | 18 | 3.5 | 6.1 | 0.00 | 0.00 | 0.00 | 92 | 1010.0 |
| 20260906150022 | 68 | 44 | 1.7 | 7.8 | 0.00 | 0.00 | 0.00 | 92 | 1009.7 |
| 20260906145520 | 68 | 53 | 3.5 | 7.8 | 0.00 | 0.00 | 0.00 | 91 | 1009.2 |
| 20260906145119 | 68 | 31 | 3.5 | 9.6 | 0.00 | 0.00 | 0.00 | 91 | 1009.1 |
| 20260906144519 | 68 | 50 | 5.2 | 9.6 | 0.00 | 0.00 | 0.00 | 91 | 1009.0 |
| 20260906144021 | 68 | 21 | 3.5 | 7.8 | 0.00 | 0.00 | 0.00 | 92 | 1009.1 |
| 20260906143518 | 68 | 51 | 4.3 | 7.8 | 0.00 | 0.00 | 0.00 | 93 | 1009.3 |
| 20260906142519 | 68 | 41 | 2.6 | 7.8 | 0.00 | 0.00 | 0.00 | 93 | 1009.6 |
| 20260906142016 | 67 | 12 | 2.6 | 8.7 | 0.00 | 0.00 | 0.00 | 93 | 1009.3 |
| 20260906141516 | 67 | 34 | 3.5 | 9.6 | 0.00 | 0.00 | 0.00 | 93 | 1009.1 |
| 20260906141015 | 68 | 15 | 5.2 | 9.6 | 0.00 | 0.00 | 0.00 | 93 | 1009.0 |
| 20260906140519 | 67 | 342 | 4.3 | 10.4 | 0.00 | 0.00 | 0.00 | 94 | 1009.1 |
| 20260906140018 | 67 | 334 | 6.1 | 10.4 | 0.00 | 0.00 | 0.00 | 94 | 1008.6 |
| 20260906135515 | 67 | 34 | 5.2 | 10.4 | 0.00 | 0.00 | 0.00 | 94 | 1008.6 |
| 20260906135013 | 67 | 55 | 5.2 | 9.6 | 0.00 | 0.00 | 0.00 | 94 | 1009.3 |
| 20260906134513 | 67 | 45 | 2.6 | 7.0 | 0.00 | 0.00 | 0.00 | 94 | 1010.3 |
| 20260906134014 | 67 | 355 | 2.6 | 7.0 | 0.00 | 0.00 | 0.00 | 94 | 1010.2 |
| 20260906133515 | 67 | 349 | 2.6 | 5.2 | 0.00 | 0.00 | 0.00 | 94 | 1010.4 |
| 20260906132512 | 67 | 10 | 0.9 | 4.3 | 0.00 | 0.00 | 0.00 | 94 | 1010.9 |
| 20260906132011 | 67 | 5 | 0.9 | 4.3 | 0.00 | 0.00 | 0.00 | 94 | 1010.7 |
| 20260906131515 | 67 | 19 | 1.7 | 4.3 | 0.00 | 0.00 | 0.00 | 94 | 1010.8 |
| 20260906131012 | 67 | 336 | 0.0 | 4.3 | 0.00 | 0.00 | 0.00 | 94 | 1010.8 |
| 20260906130510 | 67 | 14 | 0.9 | 2.6 | 0.00 | 0.00 | 0.00 | 94 | 1010.6 |
| 20260906130020 | 66 | 276 | 0.0 | 2.6 | 0.00 | 0.00 | 0.00 | 94 | 1010.6 |
| 20260906125509 | 66 | 272 | 0.0 | 1.7 | 0.00 | 0.00 | 0.00 | 94 | 1010.3 |
| 20260906125011 | 66 | 272 | 0.0 | 2.6 | 0.00 | 0.00 | 0.00 | 94 | 1010.5 |
| 20260906124508 | 66 | 272 | 0.0 | 2.6 | 0.00 | 0.00 | 0.00 | 94 | 1010.3 |
| 20260906124008 | 66 | 272 | 0.0 | 3.5 | 0.00 | 0.00 | 0.00 | 94 | 1010.4 |
| 20260906123507 | 66 | 272 | 0.0 | 3.5 | 0.00 | 0.00 | 0.00 | 94 | 1010.4 |
| 20260906122508 | 66 | 277 | 0.9 | 3.5 | 0.00 | 0.00 | 0.00 | 94 | 1009.9 |
| 20260906122008 | 66 | 277 | 1.7 | 4.3 | 0.00 | 0.00 | 0.00 | 94 | 1010.0 |
| 20260906121510 | 66 | 78 | 1.7 | 3.5 | 0.00 | 0.00 | 0.00 | 94 | 1009.8 |
| 20260906121008 | 66 | 99 | 0.9 | 3.5 | 0.00 | 0.00 | 0.00 | 94 | 1010.1 |
| 20260906120508 | 66 | 105 | 0.9 | 4.3 | 0.00 | 0.00 | 0.00 | 94 | 1009.9 |
| 20260906120006 | 66 | 24 | 0.0 | 5.2 | 0.00 | 0.00 | 0.00 | 94 | 1009.7 |
| 20260906115507 | 66 | 40 | 1.7 | 5.2 | 0.00 | 0.00 | 0.00 | 94 | 1009.5 |
| 20260906115006 | 66 | 49 | 3.5 | 7.8 | 0.00 | 0.00 | 0.00 | 94 | 1009.7 |
| 20260906114508 | 66 | 9 | 3.5 | 7.8 | 0.00 | 0.00 | 0.00 | 94 | 1009.4 |
| 20260906114011 | 66 | 5 | 2.6 | 7.0 | 0.00 | 0.00 | 0.00 | 94 | 1009.3 |
| 20260906113506 | 66 | 36 | 3.5 | 7.0 | 0.00 | 0.00 | 0.00 | 94 | 1009.4 |
| 20260906112508 | 65 | 350 | 0.0 | 2.6 | 0.00 | 0.00 | 0.00 | 93 | 1010.4 |
| 20260906112009 | 65 | 350 | 0.0 | 2.6 | 0.00 | 0.00 | 0.00 | 93 | 1010.5 |
| 20260906111513 | 65 | 355 | 0.0 | 2.6 | 0.00 | 0.00 | 0.00 | 93 | 1010.5 |
| 20260906111007 | 65 | 355 | 0.0 | 0.0 | 0.00 | 0.00 | 0.00 | 93 | 1010.4 |
| 20260906110508 | 65 | 355 | 0.0 | 0.0 | 0.00 | 0.00 | 0.00 | 93 | 1010.3 |
| 20260906110012 | 65 | 355 | 0.0 | 1.7 | 0.00 | 0.00 | 0.00 | 93 | 1010.2 |
| 20260906105507 | 65 | 355 | 0.0 | 1.7 | 0.00 | 0.00 | 0.00 | 93 | 1010.2 |
| 20260906105005 | 65 | 355 | 0.0 | 1.7 | 0.00 | 0.00 | 0.00 | 93 | 1010.4 |
| 20260906104508 | 65 | 355 | 0.0 | 2.6 | 0.00 | 0.00 | 0.00 | 93 | 1010.3 |
| 20260906104003 | 65 | 355 | 0.0 | 2.6 | 0.00 | 0.00 | 0.00 | 93 | 1010.1 |
| 20260906103502 | 65 | 355 | 0.0 | 0.0 | 0.00 | 0.00 | 0.00 | 93 | 1010.1 |
| 20260906102505 | 65 | 355 | 0.0 | 2.6 | 0.00 | 0.00 | 0.00 | 93 | 1010.3 |
| 20260906102005 | 65 | 355 | 0.9 | 2.6 | 0.00 | 0.00 | 0.00 | 93 | 1009.9 |
| 20260906101506 | 65 | 355 | 0.0 | 0.9 | 0.00 | 0.00 | 0.00 | 93 | 1009.9 |
| 20260906101006 | 65 | 355 | 0.0 | 3.5 | 0.00 | 0.00 | 0.00 | 92 | 1009.7 |
| 20260906100505 | 65 | 355 | 0.9 | 3.5 | 0.00 | 0.00 | 0.00 | 92 | 1009.7 |
| 20260906100004 | 65 | 355 | 0.9 | 2.6 | 0.00 | 0.00 | 0.00 | 92 | 1009.4 |
| 20260906095504 | 65 | 355 | 0.0 | 2.6 | 0.00 | 0.00 | 0.00 | 92 | 1009.8 |
| 20260906095004 | 65 | 355 | 0.0 | 3.5 | 0.00 | 0.00 | 0.00 | 92 | 1009.8 |
| 20260906094503 | 65 | 355 | 1.7 | 3.5 | 0.00 | 0.00 | 0.00 | 92 | 1009.6 |
| 20260906094003 | 65 | 355 | 0.0 | 0.0 | 0.00 | 0.00 | 0.00 | 92 | 1009.9 |
| 20260906093503 | 66 | 355 | 0.0 | 1.7 | 0.00 | 0.00 | 0.00 | 92 | 1009.7 |
| 20260906092558 | 66 | 355 | 0.0 | 2.6 | 0.00 | 0.00 | 0.00 | 92 | 1009.7 |
| 20260906092059 | 65 | 355 | 0.0 | 3.5 | 0.00 | 0.00 | 0.00 | 92 | 1009.6 |
| 20260906091559 | 65 | 355 | 1.7 | 3.5 | 0.00 | 0.00 | 0.00 | 92 | 1009.2 |
| 20260906091059 | 65 | 347 | 0.0 | 2.6 | 0.00 | 0.00 | 0.00 | 91 | 1009.2 |
| 20260906090557 | 65 | 348 | 1.7 | 2.6 | 0.00 | 0.00 | 0.00 | 91 | 1009.4 |
| 20260906090108 | 65 | 347 | 0.0 | 1.7 | 0.00 | 0.00 | 0.00 | 91 | 1009.8 |
| 20260906090008 | 65 | 347 | 0.0 | 1.7 | 0.00 | 0.00 | 0.00 | 91 | 1009.7 |
| 20260906085554 | 65 | 347 | 0.9 | 1.7 | 0.00 | 0.00 | 0.00 | 91 | 1009.6 |
| 20260906085054 | 66 | 347 | 0.0 | 0.0 | 0.00 | 0.00 | 0.00 | 91 | 1009.8 |
| 20260906084554 | 66 | 347 | 0.0 | 2.6 | 0.00 | 0.00 | 0.00 | 91 | 1009.9 |
| 20260906084053 | 66 | 347 | 0.9 | 2.6 | 0.00 | 0.00 | 0.00 | 91 | 1009.7 |
| 20260906083553 | 66 | 355 | 0.9 | 2.6 | 0.00 | 0.00 | 0.00 | 90 | 1009.9 |
| 20260906082554 | 66 | 355 | 0.0 | 2.6 | 0.00 | 0.00 | 0.00 | 90 | 1009.8 |
| 20260906082057 | 66 | 355 | 0.9 | 2.6 | 0.00 | 0.00 | 0.00 | 90 | 1009.7 |
| 20260906081555 | 67 | 355 | 0.0 | 2.6 | 0.00 | 0.00 | 0.00 | 90 | 1009.6 |
| 20260906081056 | 67 | 355 | 0.0 | 2.6 | 0.00 | 0.00 | 0.00 | 89 | 1009.8 |
| 20260906080552 | 67 | 355 | 0.9 | 2.6 | 0.00 | 0.00 | 0.00 | 89 | 1009.6 |
| 20260906080051 | 67 | 355 | 0.9 | 3.5 | 0.00 | 0.00 | 0.00 | 89 | 1009.9 |
| 20260906075550 | 67 | 355 | 0.9 | 3.5 | 0.00 | 0.00 | 0.00 | 89 | 1009.8 |
| 20260906075050 | 68 | 342 | 0.9 | 3.5 | 0.00 | 0.00 | 0.00 | 89 | 1009.9 |
| 20260906074550 | 68 | 360 | 0.9 | 4.3 | 0.00 | 0.00 | 0.00 | 89 | 1009.7 |
| 20260906074049 | 68 | 360 | 0.9 | 4.3 | 0.00 | 0.00 | 0.00 | 89 | 1009.8 |
| 20260906073549 | 68 | 17 | 1.7 | 4.3 | 0.00 | 0.00 | 0.00 | 90 | 1009.9 |
| 20260906072547 | 68 | 20 | 1.7 | 4.3 | 0.00 | 0.00 | 0.00 | 89 | 1010.0 |
| 20260906072047 | 68 | 360 | 1.7 | 4.3 | 0.00 | 0.00 | 0.00 | 89 | 1010.0 |
| 20260906071557 | 68 | 9 | 2.6 | 3.5 | 0.00 | 0.00 | 0.00 | 89 | 1009.9 |
| 20260906071049 | 68 | 360 | 1.7 | 4.3 | 0.00 | 0.00 | 0.00 | 88 | 1010.0 |
| 20260906070545 | 68 | 5 | 1.7 | 4.3 | 0.00 | 0.00 | 0.00 | 88 | 1009.9 |
| 20260906070044 | 68 | 36 | 0.9 | 4.3 | 0.00 | 0.00 | 0.00 | 88 | 1010.0 |
| 20260906065545 | 69 | 45 | 1.7 | 5.2 | 0.00 | 0.00 | 0.00 | 87 | 1010.2 |
| 20260906065042 | 69 | 44 | 2.6 | 7.0 | 0.00 | 0.00 | 0.00 | 87 | 1010.1 |
| 20260906064543 | 69 | 44 | 2.6 | 7.0 | 0.00 | 0.00 | 0.00 | 87 | 1010.2 |
| 20260906064044 | 69 | 34 | 3.5 | 6.1 | 0.00 | 0.00 | 0.00 | 87 | 1010.2 |
| 20260906063544 | 69 | 38 | 2.6 | 5.2 | 0.00 | 0.00 | 0.00 | 86 | 1010.3 |
| 20260906062544 | 70 | 38 | 2.6 | 6.1 | 0.00 | 0.00 | 0.00 | 86 | 1010.1 |
| 20260906062045 | 70 | 51 | 2.6 | 6.1 | 0.00 | 0.00 | 0.00 | 86 | 1010.3 |
| 20260906061542 | 70 | 46 | 2.6 | 6.1 | 0.00 | 0.00 | 0.00 | 86 | 1010.2 |
| 20260906061041 | 70 | 45 | 1.7 | 7.0 | 0.00 | 0.00 | 0.00 | 85 | 1010.3 |
| 20260906060541 | 70 | 355 | 2.6 | 7.0 | 0.00 | 0.00 | 0.00 | 85 | 1010.3 |
| 20260906060041 | 70 | 17 | 2.6 | 5.2 | 0.00 | 0.00 | 0.00 | 85 | 1010.3 |
| 20260906055541 | 70 | 355 | 2.6 | 5.2 | 0.00 | 0.00 | 0.00 | 84 | 1010.2 |
| 20260906055041 | 70 | 13 | 2.6 | 4.3 | 0.00 | 0.00 | 0.00 | 84 | 1010.3 |
| 20260906054544 | 70 | 10 | 1.7 | 5.2 | 0.00 | 0.00 | 0.00 | 84 | 1010.2 |
| 20260906054040 | 71 | 10 | 2.6 | 5.2 | 0.00 | 0.00 | 0.00 | 84 | 1010.2 |
| 20260906053540 | 71 | 31 | 2.6 | 5.2 | 0.00 | 0.00 | 0.00 | 83 | 1010.1 |
| 20260906052538 | 71 | 14 | 2.6 | 5.2 | 0.00 | 0.00 | 0.00 | 82 | 1010.1 |
| 20260906052036 | 71 | 21 | 1.7 | 7.0 | 0.00 | 0.00 | 0.00 | 81 | 1010.0 |
| 20260906051545 | 71 | 13 | 2.6 | 7.0 | 0.00 | 0.00 | 0.00 | 81 | 1009.9 |
| 20260906051036 | 72 | 39 | 2.6 | 7.0 | 0.00 | 0.00 | 0.00 | 81 | 1010.0 |
| 20260906050539 | 72 | 39 | 2.6 | 8.7 | 0.00 | 0.00 | 0.00 | 80 | 1010.1 |
| 20260906050058 | 72 | 46 | 2.6 | 8.7 | 0.00 | 0.00 | 0.00 | 80 | 1010.0 |
| 20260906045536 | 72 | 19 | 2.6 | 7.0 | 0.00 | 0.00 | 0.00 | 80 | 1009.9 |
| 20260906045035 | 72 | 5 | 2.6 | 7.0 | 0.00 | 0.00 | 0.00 | 80 | 1010.0 |
| 20260906044536 | 72 | 11 | 1.7 | 4.3 | 0.00 | 0.00 | 0.00 | 80 | 1009.9 |
| 20260906044037 | 72 | 13 | 0.9 | 7.8 | 0.00 | 0.00 | 0.00 | 79 | 1009.9 |
| 20260906043535 | 72 | 28 | 2.6 | 7.8 | 0.00 | 0.00 | 0.00 | 79 | 1010.1 |
| 20260906042535 | 72 | 5 | 1.7 | 3.5 | 0.00 | 0.00 | 0.00 | 78 | 1009.9 |
| 20260906042035 | 72 | 360 | 1.7 | 3.5 | 0.00 | 0.00 | 0.00 | 78 | 1010.0 |
| 20260906041536 | 72 | 355 | 1.7 | 3.5 | 0.00 | 0.00 | 0.00 | 77 | 1009.9 |
| 20260906041035 | 72 | 355 | 2.6 | 4.3 | 0.00 | 0.00 | 0.00 | 77 | 1009.8 |
| 20260906040535 | 72 | 335 | 1.7 | 4.3 | 0.00 | 0.00 | 0.00 | 77 | 1009.9 |
| 20260906040041 | 73 | 346 | 1.7 | 3.5 | 0.00 | 0.00 | 0.00 | 76 | 1010.1 |
| 20260906035536 | 73 | 5 | 1.7 | 3.5 | 0.00 | 0.00 | 0.00 | 75 | 1010.0 |
| 20260906035035 | 73 | 350 | 0.0 | 3.5 | 0.00 | 0.00 | 0.00 | 75 | 1010.2 |
| 20260906034541 | 73 | 342 | 1.7 | 4.3 | 0.00 | 0.00 | 0.00 | 75 | 1010.0 |
| 20260906034037 | 73 | 322 | 1.7 | 4.3 | 0.00 | 0.00 | 0.00 | 75 | 1009.9 |
| 20260906033534 | 73 | 342 | 1.7 | 3.5 | 0.00 | 0.00 | 0.00 | 74 | 1009.9 |
| 20260906032537 | 74 | 309 | 1.7 | 4.3 | 0.00 | 0.00 | 0.00 | 73 | 1010.0 |
| 20260906032038 | 74 | 5 | 1.7 | 7.0 | 0.00 | 0.00 | 0.00 | 73 | 1010.2 |
| 20260906031542 | 74 | 355 | 1.7 | 7.0 | 0.00 | 0.00 | 0.00 | 73 | 1010.0 |
| 20260906031038 | 74 | 340 | 0.9 | 3.5 | 0.00 | 0.00 | 0.00 | 73 | 1010.0 |
| 20260906030540 | 74 | 348 | 0.9 | 2.6 | 0.00 | 0.00 | 0.00 | 73 | 1010.1 |
| 20260906030037 | 74 | 360 | 0.9 | 2.6 | 0.00 | 0.00 | 0.00 | 72 | 1010.1 |
| 20260906025537 | 74 | 355 | 0.9 | 2.6 | 0.00 | 0.00 | 0.00 | 72 | 1010.0 |
| 20260906025037 | 74 | 355 | 0.9 | 3.5 | 0.00 | 0.00 | 0.00 | 72 | 1010.0 |
| 20260906024538 | 74 | 355 | 1.7 | 4.3 | 0.00 | 0.00 | 0.00 | 72 | 1010.0 |
| 20260906024037 | 74 | 5 | 1.7 | 4.3 | 0.00 | 0.00 | 0.00 | 72 | 1010.1 |
| 20260906023540 | 74 | 355 | 0.9 | 3.5 | 0.00 | 0.00 | 0.00 | 72 | 1010.1 |
| 20260906022537 | 74 | 348 | 0.9 | 2.6 | 0.00 | 0.00 | 0.00 | 71 | 1010.1 |
| 20260906022037 | 74 | 348 | 0.0 | 2.6 | 0.00 | 0.00 | 0.00 | 70 | 1010.0 |
| 20260906021536 | 75 | 348 | 1.7 | 2.6 | 0.00 | 0.00 | 0.00 | 69 | 1010.0 |
| 20260906021036 | 75 | 348 | 1.7 | 2.6 | 0.00 | 0.00 | 0.00 | 69 | 1009.9 |
| 20260906020536 | 76 | 348 | 1.7 | 2.6 | 0.00 | 0.00 | 0.00 | 68 | 1009.9 |
| 20260906020035 | 76 | 348 | 1.7 | 2.6 | 0.00 | 0.00 | 0.00 | 68 | 1009.7 |
| 20260906015534 | 77 | 348 | 0.0 | 3.5 | 0.00 | 0.00 | 0.00 | 67 | 1009.7 |
| 20260906015033 | 77 | 347 | 0.9 | 3.5 | 0.00 | 0.00 | 0.00 | 67 | 1009.6 |
| 20260906014534 | 78 | 331 | 0.9 | 3.5 | 0.00 | 0.00 | 0.00 | 66 | 1009.3 |
| 20260906014032 | 78 | 350 | 0.9 | 3.5 | 0.00 | 0.00 | 0.00 | 65 | 1009.3 |
| 20260906013532 | 79 | 355 | 1.7 | 5.2 | 0.00 | 0.00 | 0.00 | 65 | 1009.2 |
| 20260906012525 | 80 | 5 | 3.5 | 7.8 | 0.00 | 0.00 | 0.00 | 64 | 1009.0 |
| 20260906012025 | 80 | 360 | 2.6 | 7.8 | 0.00 | 0.00 | 0.00 | 63 | 1009.0 |
| 20260906011525 | 81 | 30 | 3.5 | 7.0 | 0.00 | 0.00 | 0.00 | 62 | 1008.9 |
| 20260906011026 | 81 | 49 | 1.7 | 7.0 | 0.00 | 0.00 | 0.00 | 62 | 1008.8 |
| 20260906010525 | 81 | 16 | 2.6 | 7.0 | 0.00 | 0.00 | 0.00 | 61 | 1008.8 |
| 20260906010024 | 82 | 47 | 2.6 | 7.8 | 0.00 | 0.00 | 0.00 | 61 | 1008.7 |
| 20260906005529 | 82 | 24 | 4.3 | 7.8 | 0.00 | 0.00 | 0.00 | 60 | 1008.6 |
| 20260906005024 | 83 | 57 | 2.6 | 8.7 | 0.00 | 0.00 | 0.00 | 60 | 1008.4 |
| 20260906004524 | 83 | 32 | 4.3 | 11.3 | 0.00 | 0.00 | 0.00 | 60 | 1008.5 |
| 20260906004025 | 83 | 55 | 3.5 | 11.3 | 0.00 | 0.00 | 0.00 | 59 | 1008.4 |
| 20260906003526 | 84 | 50 | 4.3 | 8.7 | 0.00 | 0.00 | 0.00 | 59 | 1008.2 |
| 20260906002529 | 84 | 28 | 3.5 | 9.6 | 0.00 | 0.00 | 0.00 | 58 | 1008.2 |
| 20260906002030 | 84 | 53 | 4.3 | 9.6 | 0.00 | 0.00 | 0.00 | 58 | 1008.1 |
| 20260906001527 | 85 | 54 | 3.5 | 9.6 | 0.00 | 0.00 | 0.00 | 58 | 1008.1 |
| 20260906001027 | 85 | 51 | 4.3 | 12.2 | 0.00 | 0.00 | 0.00 | 58 | 1008.0 |
| 20260906000526 | 85 | 55 | 6.1 | 12.2 | 0.00 | 0.00 | 0.00 | 57 | 1008.0 |
| 20260906000030 | 86 | 49 | 5.2 | 11.3 | 0.00 | 0.00 | 0.00 | 57 | 1008.1 |
| 20260905235526 | 86 | 41 | 5.2 | 11.3 | 0.00 | 0.00 | 0.00 | 56 | 1008.0 |
| 20260905235026 | 86 | 44 | 3.5 | 10.4 | 0.00 | 0.00 | 0.00 | 56 | 1007.9 |
| 20260905234525 | 86 | 36 | 3.5 | 10.4 | 0.00 | 0.00 | 0.00 | 56 | 1008.0 |
| 20260905234026 | 86 | 50 | 4.3 | 9.6 | 0.00 | 0.00 | 0.00 | 56 | 1007.7 |
| 20260905233526 | 87 | 53 | 3.5 | 9.6 | 0.00 | 0.00 | 0.00 | 56 | 1007.8 |
| 20260905232522 | 87 | 50 | 5.2 | 9.6 | 0.00 | 0.00 | 0.00 | 55 | 1007.6 |
| 20260905232021 | 87 | 51 | 3.5 | 9.6 | 0.00 | 0.00 | 0.00 | 54 | 1007.7 |
| 20260905231521 | 88 | 48 | 5.2 | 10.4 | 0.00 | 0.00 | 0.00 | 54 | 1007.7 |
| 20260905231020 | 88 | 49 | 3.5 | 10.4 | 0.00 | 0.00 | 0.00 | 54 | 1007.6 |
| 20260905230519 | 88 | 44 | 3.5 | 8.7 | 0.00 | 0.00 | 0.00 | 54 | 1007.6 |
| 20260905230019 | 88 | 62 | 2.6 | 7.8 | 0.00 | 0.00 | 0.00 | 54 | 1007.7 |
| 20260905225520 | 88 | 53 | 2.6 | 9.6 | 0.00 | 0.00 | 0.00 | 54 | 1007.6 |
| 20260905225018 | 88 | 53 | 2.6 | 9.6 | 0.00 | 0.00 | 0.00 | 54 | 1007.5 |
| 20260905224519 | 88 | 46 | 2.6 | 9.6 | 0.00 | 0.00 | 0.00 | 53 | 1007.5 |
| 20260905224019 | 89 | 47 | 2.6 | 9.6 | 0.00 | 0.00 | 0.00 | 53 | 1007.4 |
| 20260905223519 | 89 | 48 | 3.5 | 8.7 | 0.00 | 0.00 | 0.00 | 53 | 1007.3 |
| 20260905222521 | 89 | 57 | 2.6 | 8.7 | 0.00 | 0.00 | 0.00 | 53 | 1007.4 |
| 20260905222020 | 89 | 42 | 4.3 | 8.7 | 0.00 | 0.00 | 0.00 | 52 | 1007.5 |
| 20260905221522 | 89 | 32 | 4.3 | 8.7 | 0.00 | 0.00 | 0.00 | 52 | 1007.5 |
| 20260905221021 | 90 | 34 | 4.3 | 9.6 | 0.00 | 0.00 | 0.00 | 51 | 1007.6 |
| 20260905220522 | 89 | 32 | 4.3 | 9.6 | 0.00 | 0.00 | 0.00 | 49 | 1007.5 |
| 20260905220019 | 90 | 5 | 4.3 | 8.7 | 0.00 | 0.00 | 0.00 | 49 | 1007.6 |
| 20260905215519 | 90 | 24 | 3.5 | 7.8 | 0.00 | 0.00 | 0.00 | 49 | 1007.7 |
| 20260905215018 | 89 | 31 | 3.5 | 7.8 | 0.00 | 0.00 | 0.00 | 49 | 1007.6 |